Vagabond Aaf / Yakim, WA

2:25 PM PST on December 17, 2017 (GMT -0800)
Vagabond Aaf / Yakim

Weather History for K1YT - May, 2014

Change the Weather History Date:

Saturday, May 10, 2014

  Actual Average (KYKM) Record (KYKM)
Temperature  
Mean Temperature 52 °F -  
Max Temperature 65 °F 70 °F 97 °F (2013)
Min Temperature 42 °F 41 °F 25 °F (1999)
Degree Days  
Heating Degree Days 12    
Growing Degree Days 2 (Base 50)    
Moisture  
Dew Point 33 °F    
Average Humidity 47    
Maximum Humidity 74    
Minimum Humidity 27    
Precipitation  
Precipitation 0.00 in - - ()
Sea Level Pressure  
Sea Level Pressure 30.03 in    
Wind  
Wind Speed 7 mph (WNW)    
Max Wind Speed 16 mph    
Max Gust Speed 28 mph    
Visibility 12 miles    
Events Rain    
Averages and records for this station are not official NWS values.
T = Trace of Precipitation, MM = Missing Value Source: NWS Daily Summary

Daily Weather History Graph

Daily Weather History Graph

Search for Another Location

Airport or City:

Trip Planner

Search our weather history database for the weather conditions in past years. The results will help you decide how hot, cold, wet, or windy it might be!

Date:

Astronomy

May. 10, 2014 Rise Set
Actual Time 5:33 AM PDT 8:23 PM PDT
Civil Twilight 4:58 AM PDT 8:58 PM PDT
Nautical Twilight 4:14 AM PDT 9:43 PM PDT
Astronomical Twilight 3:21 AM PDT 10:36 PM PDT
Moon 4:09 PM PDT (5/10) 3:26 AM PDT (5/10)
Length of Visible Light 15h 59m
Length of Day
14h 49m
Waxing Gibbous, 83% of the Moon is Illuminated
May 10
Waxing Gibbous
May 14
Full
May 21
Last Quarter
May 28
New
Jun 5
First Quarter

Hourly Weather History & Observations

Time (PDT) Temp. Windchill Dew Point Humidity Pressure Visibility Wind Dir Wind Speed Gust Speed Precip Events Conditions
12:56 AM 42.4 °F 39.6 °F 34.2 °F 72% 29.94 in 12.0 mi SSW 4.6 mph - N/A   Mostly Cloudy
1:56 AM 42.4 °F 38.1 °F 34.3 °F 73% 29.93 in 12.0 mi SSW 6.9 mph - N/A   Mostly Cloudy
2:56 AM 43.3 °F 40.7 °F 35.1 °F 73% 29.94 in 12.0 mi SSW 4.6 mph - N/A   Mostly Cloudy
3:56 AM 42.6 °F 39.9 °F 34.9 °F 74% 29.95 in 12.0 mi SW 4.6 mph - N/A   Mostly Cloudy
4:56 AM 43.3 °F 41.7 °F 34.0 °F 70% 29.96 in 12.0 mi SSW 3.5 mph - N/A   Mostly Cloudy
5:56 AM 42.1 °F 38.4 °F 33.4 °F 71% 29.97 in 12.0 mi SSW 5.8 mph - N/A   Scattered Clouds
6:56 AM 45.5 °F - 34.2 °F 65% 29.99 in 12.0 mi Variable 1.2 mph - N/A   Clear
7:56 AM 47.8 °F - 34.3 °F 60% 30.00 in 12.0 mi NE 3.5 mph - N/A   Partly Cloudy
8:56 AM 50.5 °F - 33.1 °F 51% 30.01 in 12.0 mi Variable 4.6 mph - N/A   Partly Cloudy
9:56 AM 53.8 °F - 31.8 °F 43% 30.01 in 12.0 mi East 4.6 mph - N/A   Clear
10:56 AM 57.9 °F - 31.3 °F 36% 30.02 in 12.0 mi Variable 2.3 mph - N/A   Mostly Cloudy
11:56 AM 58.1 °F - 27.9 °F 32% 30.03 in 12.0 mi SW 2.3 mph - N/A   Mostly Cloudy
12:56 PM 62.6 °F - 30.6 °F 30% 30.03 in 12.0 mi WNW 12.7 mph 16.1 mph N/A   Mostly Cloudy
12:57 PM 62.6 °F - 28.4 °F 27% 30.03 in 12.0 mi NNW 11.5 mph 16.1 mph N/A   Mostly Cloudy
1:56 PM 62.2 °F - 28.9 °F 28% 30.03 in 12.0 mi Variable 4.6 mph 12.7 mph N/A   Mostly Cloudy
2:56 PM 62.6 °F - 30.6 °F 30% 30.03 in 12.0 mi WNW 5.8 mph - N/A   Mostly Cloudy
3:56 PM 63.0 °F - 30.9 °F 30% 30.04 in 12.0 mi WNW 15.0 mph - N/A   Mostly Cloudy
4:16 PM 62.6 °F - 32.0 °F 32% 30.05 in 12.0 mi West 12.7 mph - N/A Rain Light Rain
4:33 PM 62.6 °F - 32.0 °F 32% 30.05 in 12.0 mi WNW 6.9 mph 17.3 mph N/A   Mostly Cloudy
4:56 PM 63.1 °F - 31.5 °F 30% 30.05 in 12.0 mi NW 12.7 mph - N/A   Mostly Cloudy
5:56 PM 63.1 °F - 32.9 °F 32% 30.07 in 12.0 mi NNW 16.1 mph 25.3 mph N/A   Mostly Cloudy
6:56 PM 58.6 °F - 34.2 °F 40% 30.10 in 12.0 mi NNW 13.8 mph 27.6 mph N/A   Clear
7:56 PM 55.0 °F - 33.8 °F 45% 30.12 in 12.0 mi NNW 11.5 mph 19.6 mph N/A   Clear
8:56 PM 52.7 °F - 34.0 °F 49% 30.15 in 12.0 mi North 16.1 mph 24.2 mph N/A   Clear
9:56 PM 51.3 °F - 33.6 °F 51% 30.17 in 12.0 mi Variable 5.8 mph - N/A   Clear
11:56 PM 50.2 °F - 34.2 °F 54% 30.18 in 12.0 mi NE 9.2 mph - N/A   Clear